Weather History for Watford City, ND

Change the Weather History Date:

Thursday, October 25, 2012

  Actual Average (KISN) Record (KISN)
Temperature  
Mean Temperature 30 °F 39 °F  
Max Temperature 32 °F 52 °F 78 °F (1955)
Min Temperature 28 °F 27 °F 4 °F (1957)
Degree Days  
Heating Degree Days 35 26  
Month to date heating degree days 515  
Since 1 July heating degree days 861  
Cooling Degree Days 0 0  
Month to date cooling degree days 0  
Year to date cooling degree days 455  
Moisture  
Dew Point 22 °F    
Average Humidity 71    
Maximum Humidity 80    
Minimum Humidity 60    
Precipitation  
Precipitation 0.00 in 0.03 in 0.66 in (2010)
Month to date precipitation 0.76  
Year to date precipitation 12.94  
Sea Level Pressure  
Sea Level Pressure 30.17 in    
Wind  
Wind Speed 16 mph (WNW)    
Max Wind Speed 23 mph    
Max Gust Speed 32 mph    
Visibility 10 miles    
Events      
T = Trace of Precipitation, MM = Missing Value Source: NWS Daily Summary

Daily Weather History Graph

Daily Weather History Graph

Search for Another Location

Airport:

Trip Planner

Search our weather history database for the weather conditions in past years. The results will help you decide how hot, cold, wet, or windy it might be!

Date:

Astronomy

Oct. 25, 2012 Rise Set
Actual Time 8:27 AM CDT 6:45 PM CDT
Civil Twilight 7:55 AM CDT 7:17 PM CDT
Nautical Twilight 7:19 AM CDT 7:53 PM CDT
Astronomical Twilight 6:43 AM CDT 8:29 PM CDT
Moon 4:46 PM CDT (10/25) 4:10 AM CDT (10/25)
Length of Visible Light 11h 21m
Length of Day
10h 17m
Waxing Gibbous, 84% of the Moon is Illuminated
Oct 25
Waxing Gibbous
Oct 29
Full
Nov 6
Last Quarter
Nov 13
New
Nov 20
First Quarter

Hourly Weather History & Observations

Time (CDT) Temp. Windchill Dew Point Humidity Pressure Visibility Wind Dir Wind Speed Gust Speed Precip Events Conditions
12:15 AM 30.2 °F 18.9 °F 23.0 °F 75% 30.09 in 10.0 mi NW 16.1 mph 21.9 mph N/A   Overcast
12:35 AM 30.2 °F 20.2 °F 23.0 °F 75% 30.09 in 10.0 mi NW 12.7 mph - N/A   Overcast
12:55 AM 30.2 °F 18.5 °F 23.0 °F 75% 30.09 in 10.0 mi WNW 17.3 mph 21.9 mph N/A   Overcast
1:15 AM 30.2 °F 18.1 °F 23.0 °F 75% 30.09 in 10.0 mi WNW 18.4 mph 23.0 mph N/A   Overcast
1:35 AM 30.2 °F 18.9 °F 23.0 °F 75% 30.09 in 10.0 mi WNW 16.1 mph 23.0 mph N/A   Overcast
1:55 AM 28.4 °F 17.0 °F 23.0 °F 80% 30.10 in 10.0 mi WNW 15.0 mph 25.3 mph N/A   Overcast
2:15 AM 28.4 °F 17.5 °F 23.0 °F 80% 30.10 in 10.0 mi WNW 13.8 mph 21.9 mph N/A   Overcast
2:35 AM 30.2 °F 19.3 °F 23.0 °F 75% 30.11 in 10.0 mi WNW 15.0 mph 24.2 mph N/A   Overcast
2:55 AM 28.4 °F 16.6 °F 23.0 °F 80% 30.10 in 10.0 mi WNW 16.1 mph 23.0 mph N/A   Overcast
3:15 AM 28.4 °F 17.5 °F 23.0 °F 80% 30.11 in 10.0 mi WNW 13.8 mph 25.3 mph N/A   Overcast
3:35 AM 28.4 °F 16.2 °F 23.0 °F 80% 30.11 in 10.0 mi WNW 17.3 mph 24.2 mph N/A   Overcast
3:55 AM 28.4 °F 17.5 °F 23.0 °F 80% 30.12 in 10.0 mi WNW 13.8 mph - N/A   Overcast
4:15 AM 28.4 °F 17.0 °F 23.0 °F 80% 30.12 in 10.0 mi WNW 15.0 mph 21.9 mph N/A   Overcast
4:35 AM 28.4 °F 17.0 °F 23.0 °F 80% 30.12 in 10.0 mi WNW 15.0 mph 24.2 mph N/A   Overcast
4:55 AM 28.4 °F 16.6 °F 23.0 °F 80% 30.12 in 10.0 mi WNW 16.1 mph - N/A   Overcast
5:15 AM 30.2 °F 20.8 °F 23.0 °F 75% 30.12 in 10.0 mi WNW 11.5 mph 16.1 mph N/A   Overcast
5:35 AM 30.2 °F 19.8 °F 23.0 °F 75% 30.12 in 10.0 mi WNW 13.8 mph 24.2 mph N/A   Overcast
5:55 AM 30.2 °F 20.2 °F 23.0 °F 75% 30.12 in 10.0 mi WNW 12.7 mph - N/A   Overcast
6:15 AM 30.2 °F 18.9 °F 23.0 °F 75% 30.12 in 10.0 mi WNW 16.1 mph 24.2 mph N/A   Overcast
6:55 AM 30.2 °F 18.9 °F 23.0 °F 75% 30.14 in 10.0 mi WNW 16.1 mph 23.0 mph N/A   Overcast
7:35 AM 30.2 °F 20.8 °F 23.0 °F 75% 30.15 in 10.0 mi NW 11.5 mph 20.7 mph N/A   Overcast
7:55 AM 30.2 °F 19.3 °F 23.0 °F 75% 30.14 in 10.0 mi WNW 15.0 mph 19.6 mph N/A   Overcast
8:15 AM 30.2 °F 19.8 °F 23.0 °F 75% 30.14 in 10.0 mi WNW 13.8 mph 19.6 mph N/A   Overcast
8:35 AM 30.2 °F 19.3 °F 23.0 °F 75% 30.15 in 10.0 mi WNW 15.0 mph - N/A   Overcast
8:55 AM 30.2 °F 18.9 °F 23.0 °F 75% 30.15 in 10.0 mi WNW 16.1 mph 20.7 mph N/A   Overcast
9:15 AM 30.2 °F 18.5 °F 23.0 °F 75% 30.15 in 10.0 mi WNW 17.3 mph 23.0 mph N/A   Overcast
9:35 AM 30.2 °F 18.1 °F 23.0 °F 75% 30.15 in 10.0 mi WNW 18.4 mph 28.8 mph N/A   Overcast
9:55 AM 30.2 °F 18.5 °F 23.0 °F 75% 30.16 in 10.0 mi WNW 17.3 mph 20.7 mph N/A   Overcast
10:15 AM 30.2 °F 18.5 °F 23.0 °F 75% 30.17 in 10.0 mi NW 17.3 mph 24.2 mph N/A   Overcast
10:35 AM 30.2 °F 19.3 °F 23.0 °F 75% 30.17 in 10.0 mi WNW 15.0 mph 21.9 mph N/A   Overcast
10:55 AM 30.2 °F 19.3 °F 21.2 °F 69% 30.17 in 10.0 mi NW 15.0 mph 26.5 mph N/A   Overcast
11:15 AM 30.2 °F 20.8 °F 21.2 °F 69% 30.17 in 10.0 mi WNW 11.5 mph 24.2 mph N/A   Overcast
11:35 AM 30.2 °F 18.5 °F 23.0 °F 75% 30.17 in 10.0 mi WNW 17.3 mph 23.0 mph N/A   Overcast
11:55 AM 32.0 °F 21.2 °F 21.2 °F 64% 30.18 in 10.0 mi WNW 16.1 mph 26.5 mph N/A   Overcast
12:15 PM 30.2 °F 19.8 °F 23.0 °F 75% 30.18 in 10.0 mi WNW 13.8 mph 24.2 mph N/A   Overcast
12:35 PM 30.2 °F 18.9 °F 23.0 °F 75% 30.17 in 10.0 mi WNW 16.1 mph 26.5 mph N/A   Overcast
12:55 PM 30.2 °F 17.8 °F 23.0 °F 75% 30.17 in 10.0 mi WNW 19.6 mph 27.6 mph N/A   Overcast
1:15 PM 30.2 °F 18.9 °F 21.2 °F 69% 30.18 in 10.0 mi NW 16.1 mph 25.3 mph N/A   Overcast
1:35 PM 30.2 °F 18.5 °F 23.0 °F 75% 30.18 in 10.0 mi WNW 17.3 mph 24.2 mph N/A   Overcast
1:55 PM 30.2 °F 16.8 °F 23.0 °F 75% 30.18 in 10.0 mi WNW 23.0 mph 32.2 mph N/A   Overcast
2:15 PM 30.2 °F 17.1 °F 23.0 °F 75% 30.18 in 10.0 mi WNW 21.9 mph 27.6 mph N/A   Overcast
2:35 PM 30.2 °F 17.4 °F 23.0 °F 75% 30.18 in 10.0 mi NW 20.7 mph 28.8 mph N/A   Overcast
2:55 PM 30.2 °F 18.5 °F 21.2 °F 69% 30.18 in 10.0 mi WNW 17.3 mph 27.6 mph N/A   Overcast
3:15 PM 32.0 °F 20.5 °F 21.2 °F 64% 30.18 in 10.0 mi WNW 18.4 mph 26.5 mph N/A   Overcast
3:35 PM 32.0 °F 20.5 °F 21.2 °F 64% 30.18 in 10.0 mi WNW 18.4 mph 26.5 mph N/A   Overcast
3:55 PM 32.0 °F 21.6 °F 23.0 °F 69% 30.19 in 10.0 mi WNW 15.0 mph 27.6 mph N/A   Overcast
4:15 PM 32.0 °F 20.5 °F 21.2 °F 64% 30.19 in 10.0 mi WNW 18.4 mph 28.8 mph N/A   Overcast
4:35 PM 32.0 °F 20.5 °F 21.2 °F 64% 30.20 in 10.0 mi WNW 18.4 mph 27.6 mph N/A   Overcast
4:55 PM 32.0 °F 19.8 °F 19.4 °F 60% 30.20 in 10.0 mi NW 20.7 mph 26.5 mph N/A   Overcast
5:15 PM 32.0 °F 20.5 °F 21.2 °F 64% 30.21 in 10.0 mi WNW 18.4 mph 21.9 mph N/A   Overcast
5:35 PM 32.0 °F 20.8 °F 19.4 °F 60% 30.22 in 10.0 mi NW 17.3 mph 26.5 mph N/A   Overcast
5:55 PM 32.0 °F 21.2 °F 21.2 °F 64% 30.22 in 10.0 mi WNW 16.1 mph 24.2 mph N/A   Overcast
6:15 PM 32.0 °F 21.2 °F 21.2 °F 64% 30.23 in 10.0 mi NW 16.1 mph 26.5 mph N/A   Overcast
6:35 PM 32.0 °F 21.2 °F 19.4 °F 60% 30.24 in 10.0 mi NW 16.1 mph 28.8 mph N/A   Overcast
6:55 PM 30.2 °F 18.5 °F 21.2 °F 69% 30.24 in 10.0 mi WNW 17.3 mph 20.7 mph N/A   Overcast
7:15 PM 32.0 °F 20.5 °F 19.4 °F 60% 30.25 in 10.0 mi WNW 18.4 mph 24.2 mph N/A   Overcast
7:35 PM 30.2 °F 19.8 °F 19.4 °F 64% 30.26 in 10.0 mi WNW 13.8 mph 19.6 mph N/A   Overcast
7:55 PM 30.2 °F 20.8 °F 19.4 °F 64% 30.26 in 10.0 mi WNW 11.5 mph - N/A   Overcast
8:35 PM 30.2 °F 18.5 °F 19.4 °F 64% 30.27 in 10.0 mi WNW 17.3 mph 23.0 mph N/A   Overcast
8:55 PM 30.2 °F 19.3 °F 19.4 °F 64% 30.27 in 10.0 mi NW 15.0 mph 24.2 mph N/A   Overcast
9:15 PM 30.2 °F 18.1 °F 19.4 °F 64% 30.27 in 10.0 mi NW 18.4 mph 26.5 mph N/A   Overcast
9:35 PM 30.2 °F 19.3 °F 19.4 °F 64% 30.27 in 10.0 mi NW 15.0 mph 19.6 mph N/A   Overcast
9:55 PM 30.2 °F 19.8 °F 19.4 °F 64% 30.27 in 10.0 mi WNW 13.8 mph 20.7 mph N/A   Overcast
10:15 PM 30.2 °F 19.3 °F 21.2 °F 69% 30.28 in 10.0 mi WNW 15.0 mph 23.0 mph N/A   Overcast
11:15 PM 30.2 °F 21.3 °F 19.4 °F 64% 30.29 in 10.0 mi WNW 10.4 mph - N/A   Overcast
11:35 PM 30.2 °F 20.2 °F 21.2 °F 69% 30.29 in 10.0 mi WNW 12.7 mph - N/A   Overcast